TimeMDT,TemperatureF,Dew PointF,Humidity,Sea Level PressureIn,VisibilityMPH,Wind Direction,Wind SpeedMPH,Gust SpeedMPH,PrecipitationIn,Events,Conditions,WindDirDegrees,DateUTC
12:15 AM,46.4,3.2,17,30.28,10.0,West,4.6,-,N/A,,Clear,280,2013-03-15 06:15:00
12:35 AM,42.8,3.2,19,30.28,10.0,WNW,8.1,-,N/A,,Clear,300,2013-03-15 06:35:00
12:55 AM,44.6,3.2,18,30.27,10.0,WNW,9.2,-,N/A,,Clear,290,2013-03-15 06:55:00
1:15 AM,46.4,3.2,17,30.27,10.0,WNW,9.2,-,N/A,,Clear,300,2013-03-15 07:15:00
1:35 AM,44.6,3.2,18,30.27,10.0,West,10.4,-,N/A,,Clear,280,2013-03-15 07:35:00
1:55 AM,41.0,3.2,21,30.28,10.0,North,6.9,-,N/A,,Clear,360,2013-03-15 07:55:00
2:15 AM,46.4,3.2,17,30.27,10.0,NNW,6.9,-,N/A,,Clear,330,2013-03-15 08:15:00
2:35 AM,42.8,3.2,19,30.27,10.0,NW,5.8,-,N/A,,Clear,320,2013-03-15 08:35:00
2:55 AM,42.8,3.2,19,30.26,10.0,NNW,9.2,-,N/A,,Clear,340,2013-03-15 08:55:00
3:15 AM,41.0,5.0,23,30.25,10.0,North,8.1,-,N/A,,Clear,350,2013-03-15 09:15:00
3:35 AM,41.0,5.0,23,30.24,10.0,North,8.1,-,N/A,,Clear,360,2013-03-15 09:35:00
3:55 AM,39.2,5.0,24,30.24,10.0,NNW,4.6,-,N/A,,Clear,330,2013-03-15 09:55:00
4:15 AM,41.0,6.8,24,30.24,10.0,North,3.5,-,N/A,,Clear,350,2013-03-15 10:15:00
4:35 AM,41.0,8.6,26,30.23,10.0,NNW,6.9,-,N/A,,Clear,340,2013-03-15 10:35:00
4:55 AM,37.4,5.0,26,30.23,10.0,West,3.5,-,N/A,,Clear,280,2013-03-15 10:55:00
5:15 AM,35.6,5.0,28,30.24,10.0,WNW,4.6,-,N/A,,Clear,290,2013-03-15 11:15:00
5:35 AM,35.6,5.0,28,30.23,10.0,WNW,4.6,-,N/A,,Clear,290,2013-03-15 11:35:00
6:50 AM,37.4,6.8,28,30.24,10.0,West,6.9,-,N/A,,Scattered Clouds,280,2013-03-15 12:50:00
7:50 AM,32.0,6.8,35,30.24,10.0,Calm,Calm,-,N/A,,Scattered Clouds,0,2013-03-15 13:50:00
8:50 AM,44.6,10.4,25,30.25,10.0,Calm,Calm,-,N/A,,Mostly Cloudy,0,2013-03-15 14:50:00
9:50 AM,55.4,14.0,20,30.25,10.0,Variable,3.5,-,N/A,,Mostly Cloudy,0,2013-03-15 15:50:00
10:50 AM,59.0,10.4,15,30.24,10.0,SE,3.5,-,N/A,,Scattered Clouds,130,2013-03-15 16:50:00
11:50 AM,62.6,14.0,15,30.22,10.0,SSE,5.8,-,N/A,,Scattered Clouds,160,2013-03-15 17:50:00
12:50 PM,66.2,10.4,11,30.19,10.0,Variable,6.9,-,N/A,,Scattered Clouds,0,2013-03-15 18:50:00
1:50 PM,69.8,8.6,9,30.15,10.0,South,5.8,-,N/A,,Scattered Clouds,190,2013-03-15 19:50:00
2:50 PM,73.4,1.4,6,30.10,10.0,SSW,10.4,-,N/A,,Scattered Clouds,210,2013-03-15 20:50:00
3:50 PM,75.2,5.0,7,30.08,10.0,SW,6.9,-,N/A,,Scattered Clouds,220,2013-03-15 21:50:00
4:50 PM,73.4,5.0,7,30.05,10.0,Variable,6.9,-,N/A,,Scattered Clouds,0,2013-03-15 22:50:00
5:50 PM,71.6,8.6,9,30.04,10.0,SE,11.5,-,N/A,,Scattered Clouds,130,2013-03-15 23:50:00
10:15 PM,57.2,8.6,14,30.02,10.0,NW,10.4,-,N/A,,Clear,310,2013-03-16 04:15:00
10:35 PM,55.4,8.6,15,30.03,10.0,NW,9.2,-,N/A,,Clear,310,2013-03-16 04:35:00
10:55 PM,53.6,8.6,16,30.02,10.0,NW,8.1,-,N/A,,Clear,310,2013-03-16 04:55:00
11:15 PM,55.4,6.8,14,30.02,10.0,WNW,10.4,-,N/A,,Clear,290,2013-03-16 05:15:00
11:55 PM,51.8,6.8,16,30.02,10.0,West,12.7,-,N/A,,Clear,270,2013-03-16 05:55:00